CW1620 Weather Reports


time (UTC)temp
F
wind
direction
speed
knots
gust
knots
rain 1hr
in
rain 24hr
in
rain mn
in
humidity
%
barometer
mb
20260505165016 79 0.0 0.0 0.00 0.00 0.00 51 1011.5
20260505164016 79 0.0 0.0 0.00 0.00 0.00 50 1011.6
20260505163016 78 0.0 0.0 0.00 0.00 0.00 52 1011.7
20260505162018 78 0.0 0.0 0.00 0.00 0.00 52 1011.8
20260505161017 77 0.0 0.0 0.00 0.00 0.00 53 1011.8
20260505153016 76 0.0 0.0 0.00 0.00 0.00 56 1011.9
20260505152017 76 0.0 0.0 0.00 0.00 0.00 57 1011.9
20260505151016 76 0.0 0.0 0.00 0.00 0.00 56 1012.0
20260505125016 65 0.0 0.0 0.00 0.00 0.00 69 1012.3
20260505124016 65 0.0 0.0 0.00 0.00 0.00 70 1012.3
20260505123016 64 0.0 0.0 0.00 0.00 0.00 69 1012.3
20260505122036 64 0.0 0.0 0.00 0.00 0.00 70 1012.2
20260505121016 63 0.0 0.0 0.00 0.00 0.00 73 1012.1
20260505120016 62 0.0 0.0 0.00 0.00 0.00 75 1012.1
20260505115016 61 0.0 0.0 0.00 0.00 0.00 77 1012.1
20260505114016 61 0.0 0.0 0.00 0.00 0.00 78 1012.0
20260505113016 60 0.0 0.0 0.00 0.00 0.00 82 1011.8
20260505112036 59 0.0 0.0 0.00 0.00 0.00 84 1011.9
20260505111016 58 0.0 0.0 0.00 0.00 0.00 84 1011.8
20260505102016 58 0.0 0.0 0.00 0.00 0.00 82 1011.4
20260505101016 58 0.0 0.0 0.00 0.00 0.00 81 1011.2
20260505100016 58 0.0 0.0 0.00 0.00 0.00 81 1011.1
20260505095016 58 0.0 0.0 0.00 0.00 0.00 81 1011.0
20260505094016 59 0.0 0.0 0.00 0.00 0.00 80 1011.0
20260505093015 59 0.0 0.0 0.00 0.00 0.00 81 1011.0
20260505092015 59 0.0 0.0 0.00 0.00 0.00 80 1011.0
20260505091036 59 0.0 0.0 0.00 0.00 0.00 80 1010.9
20260505090036 60 0.0 0.0 0.00 0.00 0.00 79 1011.0
20260505085016 60 0.0 0.0 0.00 0.00 0.00 78 1010.9
20260505084018 60 0.0 0.0 0.00 0.00 0.00 77 1011.0
20260505083038 60 0.0 0.0 0.00 0.00 0.00 77 1011.0
20260505082018 60 0.0 0.0 0.00 0.00 0.00 77 1011.0
20260505081018 60 0.0 0.0 0.00 0.00 0.00 77 1011.0
20260505080017 60 0.0 0.0 0.00 0.00 0.00 77 1011.1
20260505075018 61 0.0 0.0 0.00 0.00 0.00 76 1011.0
20260505074017 61 0.0 0.0 0.00 0.00 0.00 77 1011.0
20260505073017 61 0.0 0.0 0.00 0.00 0.00 77 1010.9
20260505072017 61 0.0 0.0 0.00 0.00 0.00 78 1010.8
20260505071017 61 0.0 0.0 0.00 0.00 0.00 78 1010.8
20260505070017 61 0.0 0.0 0.00 0.00 0.00 78 1010.8
20260505065018 61 0.0 0.0 0.00 0.00 0.00 78 1010.8
20260505064017 61 0.0 0.0 0.00 0.00 0.00 77 1010.7
20260505063017 61 0.0 0.0 0.00 0.00 0.00 76 1010.9
20260505062017 62 0.0 0.0 0.00 0.00 0.00 75 1010.8
20260505061037 62 0.0 0.0 0.00 0.00 0.00 75 1010.8
20260505060017 62 0.0 0.0 0.00 0.00 0.00 75 1010.9
20260505055017 62 0.0 0.0 0.00 0.00 0.00 76 1010.9
20260505054017 61 0.0 0.0 0.00 0.00 0.00 77 1010.8
20260505053017 61 0.0 0.0 0.00 0.00 0.00 78 1010.9
20260505052017 61 0.0 0.0 0.00 0.00 0.00 79 1010.9
20260505051017 60 0.0 0.0 0.00 0.00 0.00 79 1010.8
20260505041017 59 0.0 0.0 0.00 0.00 0.00 71 1010.6
20260505040017 60 0.0 0.0 0.00 0.00 0.00 70 1010.6
20260505035016 60 0.0 0.0 0.00 0.00 0.00 68 1010.5
20260505034037 60 0.0 0.0 0.00 0.00 0.00 68 1010.6
20260505033016 61 0.0 0.0 0.00 0.00 0.00 66 1010.6
20260505032016 61 0.0 0.0 0.00 0.00 0.00 67 1010.8
20260505031016 61 0.0 0.0 0.00 0.00 0.00 66 1010.7
20260505030016 61 0.0 0.0 0.00 0.00 0.00 66 1010.7
20260505025016 61 0.0 0.0 0.00 0.00 0.00 65 1010.6
20260505024016 61 0.0 0.0 0.00 0.00 0.00 65 1010.7
20260505023016 61 0.0 0.0 0.00 0.00 0.00 64 1010.7
20260505022016 62 0.0 0.0 0.00 0.00 0.00 64 1010.7
20260505021036 62 0.0 0.0 0.00 0.00 0.00 62 1010.7
20260505020016 62 0.0 0.0 0.00 0.00 0.00 62 1010.6
20260505015016 63 0.0 0.0 0.00 0.00 0.00 61 1010.6
20260505014016 63 0.0 0.0 0.00 0.00 0.00 61 1010.5
20260505013016 63 0.0 0.0 0.00 0.00 0.00 60 1010.5
20260505012036 63 0.0 0.0 0.00 0.00 0.00 59 1010.3
20260505011016 64 0.0 0.0 0.00 0.00 0.00 58 1010.3
20260505010016 64 0.0 0.0 0.00 0.00 0.00 57 1010.2
20260505005015 64 0.0 0.0 0.00 0.00 0.00 56 1010.2
20260505004016 65 0.0 0.0 0.00 0.00 0.00 55 1010.1
20260505003017 65 0.0 0.0 0.00 0.00 0.00 55 1010.1
20260505002036 66 0.0 0.0 0.00 0.00 0.00 54 1010.0
20260505001016 66 0.0 0.0 0.00 0.00 0.00 53 1010.0
20260505000016 67 0.0 0.0 0.00 0.00 0.00 54 1010.0
20260504235015 67 0.0 0.0 0.00 0.00 0.00 51 1010.0
20260504234016 68 0.0 0.0 0.00 0.00 0.00 50 1010.0
20260504233016 69 0.0 0.0 0.00 0.00 0.00 50 1009.9
20260504232016 69 0.0 0.0 0.00 0.00 0.00 51 1010.1
20260504231015 69 0.0 0.0 0.00 0.00 0.00 49 1010.1
20260504230016 70 0.0 0.0 0.00 0.00 0.00 51 1010.0
20260504225018 70 0.0 0.0 0.00 0.00 0.00 49 1009.9
20260504224018 71 0.0 0.0 0.00 0.00 0.00 47 1010.0
20260504223017 72 0.0 0.0 0.00 0.00 0.00 50 1010.0
20260504222018 72 0.0 0.0 0.00 0.00 0.00 46 1010.0
20260504221038 73 0.0 0.0 0.00 0.00 0.00 45 1010.0
20260504220018 73 0.0 0.0 0.00 0.00 0.00 48 1010.0
20260504215017 73 0.0 0.0 0.00 0.00 0.00 46 1010.0
20260504214017 73 0.0 0.0 0.00 0.00 0.00 42 1010.1
20260504213018 73 0.0 0.0 0.00 0.00 0.00 42 1010.1
20260504212018 74 0.0 0.0 0.00 0.00 0.00 44 1010.2
20260504211017 74 0.0 0.0 0.00 0.00 0.00 41 1010.1
20260504210017 75 0.0 0.0 0.00 0.00 0.00 41 1010.2
20260504205017 75 0.0 0.0 0.00 0.00 0.00 41 1010.4
20260504204017 75 0.0 0.0 0.00 0.00 0.00 40 1010.3
20260504203018 75 0.0 0.0 0.00 0.00 0.00 40 1010.3
20260504202017 75 0.0 0.0 0.00 0.00 0.00 39 1010.5
20260504201017 75 0.0 0.0 0.00 0.00 0.00 41 1010.6
20260504200017 74 0.0 0.0 0.00 0.00 0.00 41 1010.9
20260504195017 74 0.0 0.0 0.00 0.00 0.00 40 1011.0
20260504194017 74 0.0 0.0 0.00 0.00 0.00 44 1011.2
20260504193018 74 0.0 0.0 0.00 0.00 0.00 39 1011.4
20260504192017 74 0.0 0.0 0.00 0.00 0.00 39 1011.5
20260504191017 74 0.0 0.0 0.00 0.00 0.00 41 1011.6
20260504190017 74 0.0 0.0 0.00 0.00 0.00 40 1011.7
20260504185017 74 0.0 0.0 0.00 0.00 0.00 39 1011.8
20260504184017 74 0.0 0.0 0.00 0.00 0.00 38 1011.9
20260504183017 74 0.0 0.0 0.00 0.00 0.00 41 1011.9
20260504182017 73 0.0 0.0 0.00 0.00 0.00 40 1012.0
20260504181037 73 0.0 0.0 0.00 0.00 0.00 43 1012.2
20260504180017 73 0.0 0.0 0.00 0.00 0.00 41 1012.4
20260504175017 72 0.0 0.0 0.00 0.00 0.00 42 1012.4
20260504174017 73 0.0 0.0 0.00 0.00 0.00 43 1012.5
20260504173037 72 0.0 0.0 0.00 0.00 0.00 42 1012.7
20260504172017 72 0.0 0.0 0.00 0.00 0.00 43 1012.7
20260504171017 72 0.0 0.0 0.00 0.00 0.00 41 1013.0